C/2020 H3 ( Wierzchos )

Japanese version
Home page
Updated on October 9, 2020

---------------------------------------------------------------------

* Profile

Discovery Date April 25, 2020
Magnitude 19.1 mag
Discoverer Kacper W. Wierzchos (Mount Lemmon Survey)

* Pictures

* Orbital Elements

Epoch 2020 May 31.0 TT = JDT 2459000.5
T 2020 June 3.56799 TT                                  Rudenko
q   2.3043835            (2000.0)            P               Q
z  -0.0009687      Peri.   29.60812     +0.23776826     +0.39829351
 +/-0.0000101      Node   270.56946     -0.96966660     +0.15055599
e   1.0022322      Incl.   62.36856     +0.05668275     +0.90481776
From 129 observations 2020 Apr. 25-Aug. 26, mean residual 0".6.

* Magnitudes Graph

        m1 = 13.5 + 5 log d + 10.0 log r

---------------------------------------------------------------------

The orbital elements are published on M.P.E.C. 2020-S188.
The magnitudes graphs are made with Comet for Windows.

---------------------------------------------------------------------

Copyright(C) Seiichi Yoshida (comet@aerith.net). All rights reserved.